EW3163 Weather Reports


time (UTC)temp
F
wind
direction
speed
knots
gust
knots
rain 1hr
in
rain 24hr
in
rain mn
in
humidity
%
barometer
mb
20260507203007 51 100 0.0 0.0 0.00 0.00 0.00 78 1014.3
20260507201513 51 192 0.0 0.0 0.00 0.00 0.00 78 1014.2
20260507200006 52 150 0.0 0.0 0.00 0.00 0.00 78 1014.2
20260507194505 52 189 0.0 0.0 0.00 0.00 0.00 78 1014.0
20260507193005 52 144 0.0 0.0 0.00 0.00 0.00 77 1014.0
20260507191505 52 194 0.0 0.0 0.00 0.00 0.00 77 1013.9
20260507190003 53 194 0.0 0.0 0.00 0.00 0.00 77 1013.8
20260507184600 53 133 0.0 0.0 0.00 0.00 0.00 76 1013.8
20260507183059 53 142 0.0 0.0 0.00 0.00 0.00 76 1013.9
20260507181558 54 128 0.0 0.0 0.00 0.00 0.00 76 1013.9
20260507180106 54 126 0.0 0.0 0.00 0.00 0.00 74 1013.8
20260507174630 54 141 0.0 0.9 0.00 0.00 0.00 74 1013.9
20260507173057 54 145 0.0 1.7 0.00 0.00 0.00 75 1013.8
20260507171609 54 135 0.0 0.0 0.00 0.00 0.00 75 1013.9
20260507170054 54 155 0.0 0.9 0.00 0.00 0.00 75 1014.1
20260507164555 54 124 0.0 0.9 0.00 0.00 0.00 75 1014.1
20260507163053 54 151 0.0 0.0 0.00 0.00 0.00 75 1014.2
20260507161553 53 155 0.0 0.0 0.00 0.00 0.00 76 1014.3
20260507160111 53 203 0.0 0.9 0.00 0.00 0.00 75 1014.3
20260507154549 53 139 0.0 0.9 0.00 0.00 0.00 75 1014.2
20260507153048 53 122 0.0 0.9 0.00 0.00 0.00 76 1014.4
20260507151553 53 166 0.0 0.9 0.00 0.00 0.00 74 1014.4
20260507150047 54 155 0.0 0.9 0.00 0.00 0.00 73 1014.5
20260507144546 54 132 0.0 0.0 0.00 0.00 0.00 73 1014.5
20260507143044 55 143 0.0 1.7 0.00 0.00 0.00 71 1014.5
20260507141543 55 169 0.0 0.9 0.00 0.00 0.00 71 1014.6
20260507140047 56 190 0.0 4.3 0.00 0.00 0.00 71 1014.6
20260507134543 56 157 0.0 3.5 0.00 0.00 0.00 73 1014.6
20260507133043 57 143 1.7 5.2 0.00 0.00 0.00 72 1014.4
20260507131608 56 136 0.0 5.2 0.00 0.00 0.00 71 1014.6
20260507130042 56 144 0.9 5.2 0.00 0.00 0.00 72 1014.6
20260507124549 56 141 0.0 5.2 0.00 0.00 0.00 70 1014.5
20260507123043 57 125 0.0 2.6 0.00 0.00 0.00 68 1014.5
20260507121538 57 203 0.0 5.2 0.00 0.00 0.00 69 1014.5
20260507120040 58 133 0.0 4.3 0.00 0.00 0.00 66 1014.6
20260507114534 58 143 2.6 8.7 0.00 0.00 0.00 66 1014.7
20260507113058 56 153 0.9 3.5 0.00 0.00 0.00 70 1014.8
20260507111527 55 153 0.0 4.3 0.00 0.00 0.00 72 1014.8
20260507110023 54 149 0.0 4.3 0.00 0.00 0.00 75 1014.9
20260507104520 52 141 0.9 5.2 0.00 0.00 0.00 78 1015.1
20260507103016 51 160 0.9 4.3 0.00 0.00 0.00 78 1015.2
20260507101523 51 184 1.7 5.2 0.00 0.00 0.00 77 1015.1
20260507100029 51 154 0.0 7.0 0.00 0.00 0.00 78 1015.2
20260507094513 51 156 0.0 5.2 0.00 0.00 0.00 77 1015.2
20260507093010 51 170 0.9 5.2 0.00 0.00 0.00 80 1015.3
20260507091508 50 194 0.0 3.5 0.00 0.00 0.00 81 1015.3
20260507090007 51 149 0.0 2.6 0.00 0.00 0.00 78 1015.3
20260507084507 50 149 0.0 0.0 0.00 0.00 0.00 82 1015.3
20260507083059 48 195 0.0 1.7 0.00 0.00 0.00 85 1015.4
20260507081554 46 186 0.0 3.5 0.00 0.00 0.00 87 1015.5
20260507080053 45 141 0.0 3.5 0.00 0.00 0.00 89 1015.5
20260507074551 44 194 0.0 3.5 0.00 0.00 0.00 90 1015.5
20260507073046 43 139 0.0 0.9 0.00 0.00 0.00 91 1015.5
20260507071546 43 141 0.0 0.0 0.00 0.00 0.00 92 1015.5
20260507070054 42 182 0.0 0.0 0.00 0.00 0.00 93 1015.6
20260507064545 41 162 0.0 0.0 0.00 0.00 0.00 93 1015.6
20260507063038 41 150 0.0 0.0 0.00 0.00 0.00 94 1015.6
20260507061538 40 139 0.0 0.0 0.00 0.00 0.00 94 1015.5
20260507060037 39 190 0.0 0.0 0.00 0.00 0.00 95 1015.5
20260507054538 39 176 0.0 0.0 0.00 0.00 0.00 95 1015.4
20260507053029 38 174 0.0 0.0 0.00 0.00 0.00 95 1015.4
20260507051525 37 188 0.0 0.0 0.00 0.00 0.00 95 1015.3
20260507050047 37 140 0.0 0.0 0.00 0.00 0.00 95 1015.2
20260507044524 36 165 0.0 0.0 0.00 0.00 0.00 95 1015.4
20260507043017 35 157 0.0 0.0 0.00 0.00 0.00 95 1015.4
20260507041513 34 63 0.0 0.0 0.00 0.00 0.00 95 1015.3
20260507040014 32 63 0.0 0.0 0.00 0.00 0.00 94 1015.3
20260507034511 32 63 0.0 0.0 0.00 0.00 0.00 94 1015.5
20260507033008 32 62 0.0 0.0 0.00 0.00 0.00 94 1015.5
20260507031508 31 63 0.0 0.0 0.00 0.00 0.00 94 1015.5
20260507030007 32 63 0.0 0.0 0.00 0.00 0.00 94 1015.6
20260507024506 32 62 0.0 0.0 0.00 0.00 0.00 94 1015.5
20260507023003 32 63 0.0 0.0 0.00 0.00 0.00 94 1015.5
20260507021502 32 62 0.0 0.0 0.00 0.00 0.00 94 1015.5
20260507020000 32 63 0.0 0.0 0.00 0.00 0.00 94 1015.6
20260507014601 32 63 0.0 0.0 0.00 0.00 0.00 94 1015.6
20260507013058 32 62 0.0 0.0 0.00 0.00 0.00 93 1015.7
20260507011600 32 62 0.0 0.0 0.00 0.00 0.00 93 1015.7
20260507010055 32 62 0.0 0.0 0.00 0.00 0.00 93 1015.8
20260507004555 32 63 0.0 0.0 0.00 0.00 0.00 93 1015.9
20260507003052 32 63 0.0 0.0 0.00 0.00 0.00 92 1015.9
20260507001550 33 62 0.0 0.0 0.00 0.00 0.00 92 1015.9
20260507000051 33 63 0.0 0.0 0.00 0.00 0.00 92 1015.9
20260506234604 33 63 0.0 0.0 0.00 0.00 0.00 92 1015.9
20260506233046 33 62 0.0 0.0 0.00 0.00 0.00 91 1015.9
20260506231544 33 63 0.0 0.0 0.00 0.00 0.00 91 1016.0
20260506230041 34 62 0.0 0.0 0.00 0.00 0.00 91 1016.0
20260506224545 34 62 0.0 0.0 0.00 0.00 0.00 90 1016.0
20260506223045 34 62 0.0 0.0 0.00 0.00 0.00 90 1016.0
20260506221539 34 62 0.0 0.0 0.00 0.00 0.00 89 1016.0
20260506220039 35 63 0.0 0.0 0.00 0.00 0.00 89 1016.1
20260506214542 35 63 0.0 0.0 0.00 0.00 0.00 88 1016.1
20260506213038 36 63 0.0 0.0 0.00 0.00 0.00 88 1016.2
20260506211537 36 63 0.0 0.0 0.00 0.00 0.00 87 1016.1
20260506210040 37 63 0.0 0.0 0.00 0.00 0.00 85 1016.1
20260506204548 38 63 0.0 0.0 0.00 0.00 0.00 84 1016.0